Regional Weather Roundup
Issued by NWS

Home | Current Version | Previous Version | Graphics & Text | Print | Product List | Glossary Off
Versions: 1 2 3 4 5 6 7 8 9 10 11 12 13 14 15 16 17 18 19 20 21 22 23 24 25 26 27 28 29 30 31 32 33 34 35 36 37 38 39 40 41 42 43 44 45 46 47 48 49 50

000
ASUS43 KMPX 250301
RWRMN
WEATHER ROUNDUP FOR MINNESOTA
NATIONAL WEATHER SERVICE TWIN CITIES/CHANHASSEN MN
1000 PM CDT SUN JUL 24 2016


NOTE: "FAIR" INDICATES FEW OR NO CLOUDS BELOW 12,000 FEET WITH NO
SIGNIFICANT WEATHER AND/OR OBSTRUCTIONS TO VISIBILITY. N/A MEANS
CURRENT SKY AND/OR WEATHER CONDITIONS ARE NOT AVAILABLE.

MNZ060>063-068>070-250400-
   Twin Cities Metro

CITY           SKY/WX    TMP DP  RH WIND       PRES   REMARKS
TWIN CITIES    PTCLDY    77  63  61 W8        29.96R
ST PAUL        CLEAR     76  63  64 W9        29.95R
CRYSTAL        CLEAR     75  62  64 W7        29.94R
BLAINE         CLEAR     75  63  64 W5        29.95R
LAKEVILLE      CLEAR     70  64  83 CALM      29.97R
EDEN PRAIRIE   CLEAR     74  64  71 W5        29.96R
LAKEVILLE      CLEAR     70  64  83 CALM      29.97R
SOUTH ST PAUL  CLEAR     75  62  63 W6        29.95R
LAKE ELMO      FAIR      72  63  73 W6        29.96R
$$
MNZ001>005-007-008-013>017-022>024-027-028-250400-
   Northwest Minnesota

CITY           SKY/WX    TMP DP  RH WIND       PRES   REMARKS
HALLOCK        CLEAR     70  66  88 W5        29.92R
ROSEAU         CLEAR     68  63  83 W6        29.91R
THIEF RVR FALL CLEAR     67  62  84 W7        29.95R
CROOKSTON      CLEAR     66  63  88 W7        29.95R
FOSSTON        CLEAR     64  59  82 SW5       29.96R
DETROIT LAKES  CLEAR     68  59  73 W6        29.99R
MOORHEAD       CLEAR     70  61  73 W5        29.98R
PARK RAPIDS    CLEAR     68  60  75 W8        29.97R
MAHNOMEN       FAIR      64  60  85 W7        29.97R
$$
MNZ006-009>011-018-025>026-250400-
   North Central Minnesota

CITY           SKY/WX    TMP DP  RH WIND       PRES   REMARKS
BAUDETTE       CLEAR     66  60  81 W7        29.89R
FLAG ISLAND    PTCLDY    70  63  78 W12       29.88R
INTL FALLS     MOCLDY    65  59  81 W5        29.87R
WASKISH        MOCLDY    72  63  73 W12G18    29.91R
BIG FORK       PTCLDY    66  59  77 SW3       29.91R
LONGVILLE      CLEAR     66  61  82 CALM      29.94R
GRAND RAPIDS   CLEAR     71  60  68 W8        29.94R
ORR            CLEAR     70  55  60 W7        29.86R
COOK           CLEAR     66  59  77 CALM      29.89R
WALKER         FAIR      67  60  79 W3        29.95R
$$
MNZ012-019>021-037-250400-
   Northeast Minnesota

CITY           SKY/WX    TMP DP  RH WIND       PRES   REMARKS
DULUTH         PTCLDY    69  61  75 W10       29.89R
ELY            PTCLDY    66  59  77 W5        29.87R
HIBBING        CLEAR     67  58  72 W7        29.90R
EVELETH        CLEAR     70  57  61 W8        29.91R
DULUTH HARBOR  CLEAR     75  64  69 SW6       29.87R
TWO HARBORS    CLEAR     70  63  78 W5        29.85S
SILVER BAY     CLEAR     66  61  82 CALM      29.84R
GRAND MARAIS     N/A     64  58  80 VRB3      29.79R
G MARAIS ARPRT CLEAR     64  55  72 W5        29.85S
$$
MNZ029>031-032-039>041-046>048-054>057-064-250400-
   West Central Minnesota

CITY           SKY/WX    TMP DP  RH WIND       PRES   REMARKS
FERGUS FALLS   CLEAR     66  61  82 W5        29.99R
WHEATON        CLEAR     72  63  73 W3        30.01R
MORRIS         CLEAR     66  63  88 W5        30.00R
ALEXANDRIA     CLEAR     68  59  73 W5        30.01R
ELBOW LAKE     FAIR      66  60  81 NW5       30.00R
WADENA         CLEAR     66  57  72 W5        29.98R
GLENWOOD       CLEAR     66  61  82 W6        30.01R
APPLETON       CLEAR     68  63  83 W5        30.00R
BENSON         CLEAR     66  61  82 NW3       30.00R
ORTONVILLE     CLEAR     72  61  68 CALM      30.01R
MADISON        CLEAR     68  63  83 W3        30.02R
WILLMAR        FAIR      70  63  78 W5        30.02R
$$
MNZ033>034-036-042>043-049>051-058-059-250400-
   Central Minnesota

CITY           SKY/WX    TMP DP  RH WIND       PRES   REMARKS
ST CLOUD       CLEAR     71  60  68 W8        29.96R
SAUK CENTRE    FAIR      66  59  79 W6        29.99R
PAYNESVILLE    CLEAR     65  62  88 W3        29.99R
AITKIN         PTCLDY    72  57  60 W3        29.93R
PINE RIVER     CLEAR     70  61  73 W3        29.98R
BRAINERD       CLEAR     72  61  68 W7        29.95R
STAPLES        CLEAR     64  59  82 W7        29.97R
LONG PRAIRIE   FAIR      70  57  64 SW7       29.99R
LITTLE FALLS   CLEAR     70  57  64 W5        29.97R
LITCHFIELD     CLEAR     72  66  83 CALM      30.00R
BUFFALO        CLEAR     73  64  73 W6        29.98R
MAPLE LAKE     CLEAR     72  65  77 W3        29.98R
HUTCHINSON     CLEAR     69  66  91 W6        30.00R
$$
MNZ037-044-045-052-053-250400-
   East Central Minnesota

CITY           SKY/WX    TMP DP  RH WIND       PRES   REMARKS
PRINCETON      CLEAR     70  63  78 W5        29.96R
MORA           CLEAR     70  61  73 W3        29.96R
CAMBRIDGE      CLEAR     75  61  60 W6        29.93R
RUSH CITY      CLEAR     70  63  78 W3        29.93R
MOOSE LAKE     CLEAR     68  61  77 W3        29.90R
HINCKLEY       FAIR      70  63  78 W5        29.93R
CLOQUET        PTCLDY    72  59  64 W7        29.91R
MCGREGOR       CLEAR     70  61  73 W3        29.93R
$$
MNZ071>073-080-081-089-090-097-098-250400-
   Southwest Minnesota

CITY           SKY/WX    TMP DP  RH WIND       PRES   REMARKS
MONTEVIDEO     CLEAR     72  61  68 NW5       30.03R
GRANITE FALLS  CLEAR     70  67  91 W3        30.03R
CANBY          CLEAR     71  63  76 W3        30.04R
MARSHALL       CLEAR     69  65  86 W8        30.03R
REDWOOD FALLS  CLEAR     70  63  78 W7        30.00R
OLIVIA         CLEAR     70  64  83 W6        30.01R
PIPESTONE      CLEAR     70  63  78 W5        30.06R
WINDOM         CLEAR     70  63  78 W5        30.04R
WORTHINGTON    CLEAR     67  64  90 W6        30.07R
JACKSON        CLEAR     68  63  83 W3        30.05R
TRACY          CLEAR     72  66  81 W5        30.04R
SLAYTON        RAIN      68  63  83 W3        30.06R
$$
MNZ065>067-074>077-082>085-091>093-250400-
   South Central Minnesota

CITY           SKY/WX    TMP DP  RH WIND       PRES   REMARKS
MANKATO        CLEAR     70  63  78 W7        29.99R
NEW ULM        CLEAR     68  64  88 W5        30.00R
ST JAMES       CLEAR     64  63  94 SW6       30.02R
FAIRMONT       CLEAR     68  63  83 SW6       30.02R
GLENCOE        CLEAR     71  67  86 W3        29.98R
FARIBAULT      CLEAR     70  64  83 SW3       29.99R
OWATONNA       CLEAR     66  63  88 SW5       30.00R
WASECA         CLEAR     64  61  88 W3        30.01R
ALBERT LEA     PTCLDY    70  64  83 CALM      30.01R
$$
MNZ078>079-086>088-094>096-250400-
   Southeast Minnesota

CITY           SKY/WX    TMP DP  RH WIND       PRES   REMARKS
ROCHESTER      CLOUDY    69  65  86 W8        29.99R
RED WING       CLEAR     72  64  78 CALM      29.94R
STANTON        CLEAR     72  63  73 W3        29.96R
DODGE CENTER   CLEAR     70  63  78 W7        30.00R
WINONA         CLEAR     77  64  65 NW7       29.95R
AUSTIN         MOCLDY    72  64  78 W6        30.00R
PRESTON        CLEAR     68  64  87 W7        29.99R
$$
ABBREVIATIONS USED IN REMARKS
   TC - TEMPERATURES IN CELSIUS
  WCI - WIND CHILL INDEX
   HX - HEAT INDEX
  VSB - VISIBILITY
$$



USA.gov is the U.S. government's official web portal to all federal, state and local government web resources and services.